Weather History for KAUH - January, 2014

Change the Weather History Date:

Monday, January 13, 2014

  Actual Average Record
Temperature  
Mean Temperature 37 °F -  
Max Temperature 51 °F 33 °F 68 °F (1987)
Min Temperature 23 °F 10 °F -14 °F (1964)
Degree Days  
Heating Degree Days 28    
Moisture  
Dew Point 25 °F    
Average Humidity 60    
Maximum Humidity 93    
Minimum Humidity 29    
Precipitation  
Precipitation 0.00 in - - ()
Sea Level Pressure  
Sea Level Pressure 29.78 in    
Wind  
Wind Speed 12 mph (West)    
Max Wind Speed 21 mph    
Max Gust Speed 30 mph    
Visibility 10 miles    
Events      
Averages and records for this station are not official NWS values.
T = Trace of Precipitation, MM = Missing Value Source: NWS Daily Summary

Daily Weather History Graph

Daily Weather History Graph

Search for Another Location

Airport or City:

Trip Planner

Search our weather history database for the weather conditions in past years. The results will help you decide how hot, cold, wet, or windy it might be!

Date:

Astronomy

Jan. 13, 2014 Rise Set
Actual Time 7:55 AM CST 5:26 PM CST
Civil Twilight 7:24 AM CST 5:57 PM CST
Nautical Twilight 6:50 AM CST 6:30 PM CST
Astronomical Twilight 6:17 AM CST 7:03 PM CST
Moon 3:43 PM CST (1/13) 5:44 AM CST (1/13)
Length of Visible Light 10h 32m
Length of Day
9h 31m
Waxing Gibbous, 95% of the Moon is Illuminated
Jan 13
Waxing Gibbous
Jan 15
Full
Jan 23
Last Quarter
Jan 30
New
Feb 6
First Quarter

Hourly Weather History & Observations

Time (CST) Temp. Windchill Dew Point Humidity Pressure Visibility Wind Dir Wind Speed Gust Speed Precip Events Conditions
12:15 AM 36.9 °F 29.6 °F 27.5 °F 69% 29.73 in 10.0 mi NW 10.4 mph - N/A   Mostly Cloudy
12:35 AM 39.4 °F 31.4 °F 27.5 °F 62% 29.74 in 10.0 mi NW 13.8 mph - N/A   Overcast
12:55 AM 40.1 °F 32.7 °F 27.5 °F 61% 29.74 in 10.0 mi NW 12.7 mph - N/A   Overcast
1:15 AM 42.3 °F 33.6 °F 27.5 °F 56% 29.76 in 10.0 mi NW 19.6 mph - N/A   Overcast
1:35 AM 43.3 °F 36.5 °F 29.1 °F 57% 29.75 in 10.0 mi NNW 13.8 mph - N/A   Overcast
1:55 AM 42.3 °F 35.9 °F 27.9 °F 57% 29.76 in 10.0 mi NNW 11.5 mph - N/A   Overcast
2:15 AM 40.8 °F 33.7 °F 26.4 °F 57% 29.76 in 10.0 mi NW 12.7 mph - N/A   Scattered Clouds
2:35 AM 39.6 °F 31.3 °F 25.9 °F 58% 29.77 in 10.0 mi NNW 15.0 mph 20.7 mph N/A   Scattered Clouds
2:55 AM 39.2 °F 31.2 °F 25.9 °F 59% 29.78 in 10.0 mi NNW 13.8 mph - N/A   Scattered Clouds
3:15 AM 36.9 °F 29.6 °F 25.5 °F 64% 29.79 in 10.0 mi NW 10.4 mph - N/A   Clear
3:35 AM 33.8 °F 25.8 °F 24.8 °F 70% 29.80 in 10.0 mi WNW 10.4 mph - N/A   Clear
3:55 AM 34.9 °F 25.7 °F 25.5 °F 69% 29.80 in 10.0 mi NW 13.8 mph - N/A   Clear
4:15 AM 34.5 °F 25.7 °F 25.5 °F 70% 29.81 in 10.0 mi NW 12.7 mph - N/A   Clear
4:35 AM 33.1 °F 23.0 °F 25.2 °F 73% 29.81 in 10.0 mi WNW 15.0 mph - N/A   Clear
4:55 AM 33.1 °F 23.0 °F 25.5 °F 74% 29.82 in 10.0 mi NW 15.0 mph - N/A   Clear
5:15 AM 32.0 °F 21.6 °F 25.3 °F 76% 29.83 in 10.0 mi NW 15.0 mph - N/A   Clear
5:35 AM 31.3 °F 22.7 °F 24.8 °F 77% 29.83 in 10.0 mi WNW 10.4 mph - N/A   Clear
5:55 AM 28.6 °F 19.3 °F 23.9 °F 83% 29.83 in 10.0 mi WNW 10.4 mph - N/A   Clear
6:15 AM 27.9 °F 19.8 °F 23.9 °F 85% 29.84 in 10.0 mi WNW 8.1 mph - N/A   Clear
6:35 AM 27.3 °F 19.1 °F 23.5 °F 86% 29.84 in 10.0 mi WNW 8.1 mph - N/A   Clear
6:55 AM 25.5 °F 16.2 °F 22.6 °F 89% 29.84 in 10.0 mi West 9.2 mph - N/A   Clear
7:15 AM 24.4 °F 13.0 °F 21.9 °F 90% 29.84 in 10.0 mi West 12.7 mph - N/A   Clear
7:35 AM 23.9 °F 15.8 °F 21.9 °F 92% 29.85 in 10.0 mi WNW 6.9 mph - N/A   Clear
7:55 AM 23.5 °F 16.4 °F 21.6 °F 92% 29.85 in 10.0 mi WNW 5.8 mph - N/A   Clear
8:15 AM 23.9 °F 15.0 °F 22.1 °F 93% 29.86 in 10.0 mi West 8.1 mph - N/A   Clear
8:35 AM 25.7 °F 19.0 °F 23.4 °F 91% 29.86 in 10.0 mi West 5.8 mph - N/A   Clear
8:55 AM 28.6 °F 23.5 °F 25.5 °F 88% 29.87 in 10.0 mi West 4.6 mph - N/A   Clear
9:15 AM 30.2 °F 24.3 °F 26.6 °F 86% 29.88 in 10.0 mi WSW 5.8 mph - N/A   Clear
9:35 AM 32.0 °F 24.8 °F 27.9 °F 85% 29.88 in 10.0 mi West 8.1 mph - N/A   Clear
9:55 AM 34.5 °F 26.7 °F 28.8 °F 79% 29.88 in 10.0 mi West 10.4 mph - N/A   Clear
10:15 AM 35.8 °F 28.8 °F 28.4 °F 75% 29.88 in 10.0 mi West 9.2 mph - N/A   Clear
10:35 AM 37.4 °F 30.8 °F 28.6 °F 70% 29.88 in 10.0 mi West 9.2 mph - N/A   Clear
10:55 AM 39.2 °F 33.0 °F 28.6 °F 66% 29.87 in 10.0 mi West 9.2 mph - N/A   Clear
11:15 AM 40.3 °F 33.9 °F 28.0 °F 62% 29.86 in 10.0 mi West 10.4 mph - N/A   Clear
11:35 AM 41.7 °F 35.6 °F 27.1 °F 56% 29.86 in 10.0 mi West 10.4 mph - N/A   Clear
11:55 AM 42.8 °F 37.0 °F 26.4 °F 52% 29.84 in 10.0 mi West 10.4 mph - N/A   Clear
12:15 PM 44.1 °F 38.6 °F 26.4 °F 50% 29.82 in 10.0 mi WSW 10.4 mph - N/A   Clear
12:35 PM 44.8 °F 39.0 °F 26.1 °F 48% 29.81 in 10.0 mi West 11.5 mph - N/A   Clear
12:55 PM 46.2 °F 40.1 °F 25.9 °F 45% 29.79 in 10.0 mi WSW 13.8 mph 18.4 mph N/A   Clear
1:15 PM 47.8 °F - 26.2 °F 43% 29.77 in 10.0 mi WSW 15.0 mph - N/A   Clear
1:35 PM 48.9 °F - 24.4 °F 38% 29.75 in 10.0 mi SW 16.1 mph 23.0 mph N/A   Clear
1:55 PM 50.2 °F - 22.6 °F 34% 29.74 in 10.0 mi SW 16.1 mph 20.7 mph N/A   Clear
2:15 PM 50.7 °F - 21.2 °F 31% 29.73 in 10.0 mi WSW 18.4 mph 24.2 mph N/A   Clear
2:35 PM 50.9 °F - 19.9 °F 30% 29.73 in 10.0 mi WSW 20.7 mph 25.3 mph N/A   Clear
2:55 PM 50.9 °F - 19.2 °F 29% 29.73 in 10.0 mi WSW 19.6 mph 27.6 mph N/A   Clear
3:15 PM 50.9 °F - 19.8 °F 29% 29.73 in 10.0 mi WSW 18.4 mph 24.2 mph N/A   Clear
3:35 PM 50.9 °F - 20.3 °F 30% 29.73 in 10.0 mi WSW 17.3 mph 24.2 mph N/A   Clear
3:55 PM 51.3 °F - 20.5 °F 30% 29.74 in 10.0 mi West 20.7 mph 29.9 mph N/A   Clear
4:15 PM 50.4 °F - 21.7 °F 33% 29.74 in 10.0 mi West 16.1 mph 21.9 mph N/A   Clear
4:35 PM 49.1 °F - 22.1 °F 35% 29.74 in 10.0 mi West 12.7 mph - N/A   Clear
4:55 PM 46.0 °F 41.9 °F 21.9 °F 39% 29.74 in 10.0 mi West 8.1 mph - N/A   Clear
5:15 PM 42.4 °F 37.5 °F 21.6 °F 44% 29.73 in 10.0 mi WSW 8.1 mph - N/A   Clear
5:35 PM 40.1 °F 34.7 °F 21.0 °F 47% 29.73 in 10.0 mi WSW 8.1 mph - N/A   Clear
5:55 PM 38.7 °F 34.3 °F 21.2 °F 50% 29.72 in 10.0 mi SW 5.8 mph - N/A   Clear
6:15 PM 37.0 °F 29.8 °F 21.4 °F 53% 29.72 in 10.0 mi WSW 10.4 mph - N/A   Clear
6:35 PM 37.2 °F 30.0 °F 22.1 °F 54% 29.72 in 10.0 mi WSW 10.4 mph - N/A   Clear
6:55 PM 36.5 °F 29.2 °F 22.6 °F 57% 29.72 in 10.0 mi West 10.4 mph - N/A   Clear
7:15 PM 38.7 °F 31.4 °F 24.8 °F 58% 29.72 in 10.0 mi West 11.5 mph - N/A   Clear
7:35 PM 37.8 °F 31.3 °F 24.4 °F 59% 29.73 in 10.0 mi West 9.2 mph - N/A   Clear
7:55 PM 39.0 °F 31.4 °F 25.2 °F 58% 29.73 in 10.0 mi West 12.7 mph - N/A   Clear
8:15 PM 39.9 °F 33.4 °F 25.5 °F 56% 29.73 in 10.0 mi West 10.4 mph - N/A   Scattered Clouds
8:35 PM 44.2 °F 37.6 °F 26.2 °F 49% 29.73 in 10.0 mi West 13.8 mph - N/A   Overcast
8:55 PM 46.6 °F - 27.1 °F 47% 29.73 in 10.0 mi West 15.0 mph 21.9 mph N/A   Overcast
9:15 PM 43.9 °F 37.9 °F 26.6 °F 51% 29.72 in 10.0 mi West 11.5 mph - N/A   Mostly Cloudy
9:35 PM 43.7 °F 37.7 °F 27.3 °F 53% 29.72 in 10.0 mi West 11.5 mph - N/A   Overcast
9:55 PM 44.6 °F 38.1 °F 28.2 °F 53% 29.74 in 10.0 mi West 13.8 mph - N/A   Mostly Cloudy
10:15 PM 45.1 °F 39.1 °F 30.9 °F 58% 29.73 in 10.0 mi WNW 12.7 mph 23.0 mph N/A   Mostly Cloudy
10:35 PM 44.1 °F 39.0 °F 31.6 °F 62% 29.73 in 10.0 mi WNW 9.2 mph - N/A   Mostly Cloudy
10:55 PM 42.3 °F 35.9 °F 30.6 °F 63% 29.73 in 10.0 mi West 11.5 mph - N/A   Mostly Cloudy
11:15 PM 42.3 °F 35.1 °F 29.7 °F 61% 29.74 in 10.0 mi West 13.8 mph - N/A   Overcast
11:35 PM 42.1 °F 35.2 °F 28.8 °F 59% 29.74 in 10.0 mi West 12.7 mph - N/A   Overcast
11:55 PM 42.8 °F 35.1 °F 28.6 °F 57% 29.72 in 10.0 mi West 16.1 mph - N/A   Overcast